Weather reports worldwide

Advertisment
Guernsey, United Kingdom (3894): temperature & dewpoint: 17.01.2019 02:00:00 - 23.01.2019 02:00:00 (GMT)Guernsey, United Kingdom (3894): temperature -20cm & temperature -100cm: 17.01.2019 02:00:00 - 23.01.2019 02:00:00 (GMT)Guernsey, United Kingdom (3894): wind speed & gusts: 17.01.2019 02:00:00 - 23.01.2019 02:00:00 (GMT)Guernsey, United Kingdom (3894): wind direction: 17.01.2019 02:00:00 - 23.01.2019 02:00:00 (GMT)Guernsey, United Kingdom (3894): reduced air pressure: 17.01.2019 02:00:00 - 23.01.2019 02:00:00 (GMT)Guernsey, United Kingdom (3894): visibility: 17.01.2019 02:00:00 - 23.01.2019 02:00:00 (GMT)Guernsey, United Kingdom (3894): precipitation: 17.01.2019 02:00:00 - 23.01.2019 02:00:00 (GMT)
Date & Time tt [°C] td [°C] tt -20cm [°C] tt -100cm [°C] ff [km/h] ff [kn] fx [km/h] fx [kn] dd ppp [hPa] vv [km] rr [mm]
23.01.2019 02:00:00 5,5 1,3 - - 21 11 - - NNW 999,3 35 -
23.01.2019 01:00:00 5,9 1,4 - - 18 10 - - NNW 998,9 35 -
23.01.2019 00:00:00 6,0 1,9 - - 18 10 - - NNW 999,1 25 -
22.01.2019 23:00:00 5,7 2,3 - - 29 16 50 27 NW 999,5 15 -
22.01.2019 22:00:00 6,4 1,7 - - 24 13 46 25 NW 999,9 15 -
22.01.2019 21:00:00 6,5 1,4 - - 35 19 - - WNW 1000,0 20 -
22.01.2019 20:00:00 7,2 0,7 - - 31 17 46 25 NW 1000,2 10 -
22.01.2019 19:00:00 6,6 2,7 - - 28 15 55 30 WNW 1000,9 10 -
22.01.2019 18:00:00 7,2 1,6 - - 31 17 48 26 WNW 1001,4 10 -
22.01.2019 17:00:00 7,3 1,4 - - 31 17 48 26 WNW 1001,2 50 -
22.01.2019 16:00:00 7,1 2,0 - - 26 14 50 27 WNW 1001,5 45 -
22.01.2019 15:00:00 7,0 2,9 - - 34 18 52 28 W 1002,1 10 -
22.01.2019 14:00:00 7,4 2,9 - - 28 15 - - W 1002,9 10 -
22.01.2019 13:00:00 7,1 2,9 - - 29 16 - - W 1004,4 45 -
22.01.2019 12:00:00 7,4 1,3 - - 22 12 - - W 1005,7 50 -
22.01.2019 11:00:00 7,3 0,5 - - 21 11 - - WNW 1006,4 10 -
22.01.2019 10:00:00 7,0 0,5 - - 24 13 - - WNW 1006,8 10 -
22.01.2019 09:00:00 6,2 0,2 7,2 9,4 18 10 - - W 1007,1 10 -
22.01.2019 08:00:00 6,5 1,2 - - 18 10 - - WNW 1007,5 10 -
22.01.2019 07:00:00 6,3 0,3 - - 24 13 - - NW 1007,8 45 -
22.01.2019 06:00:00 6,4 0,0 - - 18 10 - - WNW 1008,0 10 -
22.01.2019 05:00:00 6,6 0,1 - - 16 9 - - WNW 1008,3 10 -
22.01.2019 04:00:00 6,5 -0,6 - - 22 12 - - NW 1008,7 10 -
22.01.2019 03:00:00 6,2 2,8 - - 21 11 - - NW 1009,2 10 -
22.01.2019 02:00:00 5,7 5,0 - - 24 13 57 31 WNW 1009,7 10 -
22.01.2019 01:00:00 7,4 6,3 - - 35 19 57 31 SSW 1010,1 10 -
22.01.2019 00:00:00 7,3 5,8 - - 31 17 50 27 SSW 1011,5 10 -
21.01.2019 23:00:00 7,2 5,7 - - 31 17 48 26 SSW 1013,0 10 -
21.01.2019 22:00:00 6,9 5,0 - - 34 18 48 26 SSW 1014,7 10 -
21.01.2019 21:00:00 7,1 4,7 - - 29 16 - - SW 1016,3 10 -
21.01.2019 20:00:00 7,0 4,0 - - 24 13 - - SW 1017,2 35 -
21.01.2019 19:00:00 7,0 5,2 - - 24 13 - - SSW 1018,3 10 -
21.01.2019 18:00:00 6,8 4,4 - - 24 13 - - SW 1019,6 10 -
21.01.2019 17:00:00 6,3 4,7 - - 21 11 - - SW 1020,7 10 -
21.01.2019 16:00:00 6,1 3,7 - - 15 8 - - S 1021,3 10 -
21.01.2019 15:00:00 6,0 3,0 - - 15 8 - - S 1022,3 10 -
21.01.2019 14:00:00 5,9 3,1 - - 13 7 - - S 1022,9 10 -
21.01.2019 13:00:00 6,2 3,2 - - 8 4 - - S 1023,9 10 -
21.01.2019 12:00:00 6,5 2,7 - - 5 3 - - E 1024,6 45 0,0
21.01.2019 11:00:00 6,4 2,3 - - 5 3 - - ENE 1025,5 10 -
21.01.2019 10:00:00 5,8 2,9 - - 4 2 - - - 1025,6 10 -
21.01.2019 09:00:00 5,3 2,0 6,9 9,5 8 4 - - ENE 1025,1 40 -
21.01.2019 08:00:00 4,1 1,3 - - 5 3 - - ENE 1025,0 35 -
21.01.2019 07:00:00 4,4 1,4 - - 8 4 - - NE 1025,0 10 -
21.01.2019 06:00:00 4,6 1,1 - - 5 3 - - - 1024,9 10 0,0
21.01.2019 05:00:00 3,8 1,2 - - 5 3 - - NNE 1025,1 10 -
21.01.2019 04:00:00 4,9 2,0 - - 9 5 - - NNE 1025,1 10 -
21.01.2019 03:00:00 4,8 1,6 - - 11 6 - - NE 1025,0 35 -
21.01.2019 02:00:00 4,1 0,5 - - 8 4 - - NE 1024,9 35 -
21.01.2019 01:00:00 3,5 -0,1 - - 9 5 - - NE 1024,7 10 -
21.01.2019 00:00:00 3,1 0,1 - - 8 4 50 27 NNE 1024,6 10 0,0
20.01.2019 23:00:00 2,7 0,4 - - 8 4 - - NNE 1024,3 10 -
20.01.2019 22:00:00 2,9 0,5 - - 5 3 - - NNE 1023,8 30 -
20.01.2019 21:00:00 2,9 0,6 - - 9 5 - - N 1023,5 10 -
20.01.2019 20:00:00 3,3 0,9 - - 9 5 - - NNE 1022,8 10 -
20.01.2019 19:00:00 2,9 0,4 - - 9 5 - - NNE 1021,9 10 -
20.01.2019 18:00:00 3,3 0,4 - - 16 9 - - NNE 1021,1 10 -
20.01.2019 17:00:00 3,8 0,8 - - 18 10 - - NNE 1020,5 10 -
20.01.2019 16:00:00 4,7 1,1 - - 22 12 - - N 1019,4 35 -
20.01.2019 15:00:00 5,4 2,0 - - 18 10 - - N 1018,6 10 -
20.01.2019 14:00:00 6,2 3,1 - - 21 11 - - NNE 1018,0 10 -
20.01.2019 13:00:00 6,7 3,7 - - 16 9 - - NNE 1017,8 10 -
20.01.2019 12:00:00 6,3 3,8 - - 11 6 - - NNE 1017,5 10 -
20.01.2019 11:00:00 6,6 4,2 - - 13 7 - - NNE 1017,0 10 -
20.01.2019 10:00:00 6,4 4,4 - - 9 5 - - NNE 1015,9 10 -
20.01.2019 09:00:00 6,6 3,7 7,7 9,7 11 6 - - N 1015,0 10 -
20.01.2019 08:00:00 6,1 5,1 - - 9 5 - - NNE 1014,1 10 -
20.01.2019 07:00:00 6,2 5,4 - - 8 4 - - NNE 1013,1 10 -
20.01.2019 06:00:00 6,4 5,7 - - 9 5 - - NE 1012,3 10 -
20.01.2019 05:00:00 6,4 5,9 - - 13 7 - - NE 1011,6 10 -
20.01.2019 04:00:00 6,6 5,8 - - 11 6 - - NNE 1011,0 10 -
20.01.2019 03:00:00 6,1 5,4 - - 5 3 - - NNE 1010,6 30 -
20.01.2019 02:00:00 6,0 5,0 - - 8 4 - - NNE - 10 -
20.01.2019 01:00:00 6,0 4,8 - - 8 4 - - N 1009,4 10 -
20.01.2019 00:00:00 6,2 5,3 - - 5 3 - - NNE 1009,0 10 -
19.01.2019 23:00:00 6,5 5,2 - - 8 4 - - N 1008,5 45 -
19.01.2019 22:00:00 6,7 5,3 - - 8 4 - - NNE 1008,0 10 -
19.01.2019 21:00:00 6,8 5,5 - - 5 3 - - N 1007,5 10 -
19.01.2019 20:00:00 6,9 5,6 - - 8 4 - - NW 1007,2 45 -
19.01.2019 19:00:00 6,7 5,8 - - 5 3 - - NW 1006,9 10 -
19.01.2019 18:00:00 6,6 5,5 - - 4 2 - - NNW 1006,6 10 -
19.01.2019 17:00:00 7,2 5,1 - - 8 4 - - N 1006,2 10 -
19.01.2019 16:00:00 7,8 6,3 - - 11 6 - - W 1006,0 10 -
19.01.2019 15:00:00 9,1 6,6 - - 18 10 - - WSW 1005,8 10 -
19.01.2019 14:00:00 9,5 7,3 - - 18 10 - - WSW 1005,8 10 -
19.01.2019 13:00:00 8,6 6,0 - - 16 9 - - SW 1006,2 20 -
19.01.2019 12:00:00 8,9 7,5 - - 21 11 - - SW 1006,8 10 -
19.01.2019 11:00:00 8,7 6,6 - - 15 8 - - SW 1007,3 10 -
19.01.2019 10:00:00 8,1 6,4 - - 15 8 - - SW 1007,1 35 -
19.01.2019 09:00:00 7,5 6,0 7,7 9,7 13 7 - - SW 1007,1 10 -
19.01.2019 08:00:00 7,8 7,2 - - 21 11 - - SSW 1007,0 5 -
19.01.2019 07:00:00 6,7 5,5 - - 11 6 - - WSW 1006,9 10 -
19.01.2019 06:00:00 7,9 6,7 - - 16 9 - - S 1006,9 10 -
19.01.2019 05:00:00 7,5 6,5 - - 18 10 - - S 1007,3 10 -
19.01.2019 04:00:00 7,2 6,3 - - 18 10 - - S 1008,0 10 -
19.01.2019 03:00:00 6,8 5,8 - - 21 11 - - S 1008,6 25 -
19.01.2019 02:00:00 6,4 5,6 - - 26 14 - - S 1008,9 10 -
19.01.2019 01:00:00 6,4 5,4 - - 28 15 - - S 1009,5 20 -
19.01.2019 00:00:00 6,3 5,2 - - 26 14 - - SSE 1009,7 10 -
18.01.2019 23:00:00 6,2 4,7 - - 34 18 50 27 SSE 1010,0 20 -
18.01.2019 22:00:00 6,0 4,5 - - 35 19 55 30 S 1010,4 10 -
18.01.2019 21:00:00 5,9 4,3 - - 39 21 55 30 S 1010,2 10 -
18.01.2019 20:00:00 5,7 4,4 - - 35 19 54 29 SSE 1010,2 15 -
18.01.2019 19:00:00 5,7 4,5 - - 34 18 48 26 SSE 1010,8 8 -
18.01.2019 18:00:00 6,0 4,1 - - 35 19 52 28 SSE 1011,0 10 -
18.01.2019 17:00:00 6,5 3,1 - - 35 19 - - SSE 1011,5 10 -
18.01.2019 16:00:00 6,5 2,5 - - 34 18 48 26 SSE 1012,0 10 -
18.01.2019 15:00:00 6,2 1,9 - - 31 17 - - SSE 1012,6 10 -
18.01.2019 14:00:00 6,1 1,8 - - 29 16 - - SSE 1013,4 10 -
18.01.2019 13:00:00 5,8 0,4 - - 31 17 50 27 SSE 1014,2 10 -
18.01.2019 12:00:00 5,5 -0,8 - - 35 19 50 27 S 1015,3 10 0,0
18.01.2019 11:00:00 5,7 -1,5 - - 34 18 46 25 S 1015,9 50 -
18.01.2019 10:00:00 5,1 -1,7 - - 31 17 - - S 1016,3 10 -
18.01.2019 09:00:00 5,0 -1,7 7,4 9,7 28 15 - - S 1016,5 10 -
18.01.2019 08:00:00 5,2 -2,4 - - 28 15 - - S 1016,7 10 -
18.01.2019 07:00:00 5,3 -2,5 - - 26 14 - - S 1016,9 10 -
18.01.2019 06:00:00 5,2 -1,4 - - 21 11 - - S 1017,6 10 0,0
18.01.2019 05:00:00 5,4 -0,7 - - 24 13 - - S 1018,0 10 -
18.01.2019 04:00:00 5,6 -1,0 - - 22 12 - - S 1018,4 10 -
18.01.2019 03:00:00 5,0 -2,7 - - 13 7 - - S 1019,1 10 -
18.01.2019 02:00:00 4,5 -2,2 - - 11 6 - - SSE 1019,6 10 -
18.01.2019 01:00:00 3,4 -3,1 - - 5 3 - - ESE 1019,9 10 -
18.01.2019 00:00:00 3,9 -4,5 - - 4 2 - - ESE 1020,5 10 0,0
17.01.2019 23:00:00 3,7 -4,2 - - 8 4 - - ESE 1020,3 10 -
17.01.2019 22:00:00 3,6 -4,1 - - 4 2 - - E 1020,2 10 -
17.01.2019 21:00:00 3,8 -4,4 - - 4 2 - - N 1020,2 10 -
17.01.2019 20:00:00 2,4 -4,4 - - 2 1 - - - 1020,1 10 -
17.01.2019 19:00:00 3,7 -4,7 - - 8 4 - - N 1019,6 10 -
17.01.2019 18:00:00 3,7 -4,3 - - 8 4 - - N 1019,5 10 0,0
17.01.2019 17:00:00 4,2 -4,1 - - 9 5 - - NNW 1018,9 10 -
17.01.2019 16:00:00 5,1 -5,8 - - 15 8 - - N 1018,2 10 -
17.01.2019 15:00:00 5,9 -5,0 - - 18 10 - - N 1017,2 10 -
17.01.2019 14:00:00 6,3 -2,8 - - 18 10 - - N 1016,8 10 -
17.01.2019 13:00:00 7,3 -0,2 - - 24 13 - - N 1016,5 10 -
17.01.2019 12:00:00 7,3 0,3 - - 24 13 - - NNW 1015,8 50 0,0
17.01.2019 11:00:00 7,8 0,3 - - 26 14 - - NNW 1015,2 10 -
17.01.2019 10:00:00 6,9 2,3 - - 22 12 - - NNW 1014,2 10 -
17.01.2019 09:00:00 7,0 2,1 8,2 9,9 21 11 - - NNW 1013,1 10 -
17.01.2019 08:00:00 6,8 2,5 - - 18 10 - - NW 1011,9 50 -
17.01.2019 07:00:00 6,9 1,7 - - 26 14 - - NW 1011,2 45 -
17.01.2019 06:00:00 6,7 0,9 - - 26 14 - - NW 1010,6 10 -
17.01.2019 05:00:00 6,7 1,1 - - 29 16 - - NW 1009,8 10 -
17.01.2019 04:00:00 6,9 1,3 - - 26 14 52 28 NW 1009,2 10 -
17.01.2019 03:00:00 7,1 2,3 - - 29 16 52 28 NW 1008,2 10 -
17.01.2019 02:00:00 6,6 3,0 - - 28 15 67 36 WNW 1007,7 10 -

tt = temperature
td = dewpoint
tt -20cm = temperature -20cm
tt -100cm = temperature -100cm
ff = wind speed
fx = gusts
dd = wind direction
ppp = reduced air pressure
vv = visibility
rr = precipitation

Next stations